IW8RUI-5 Weather Reports


Display with metric or nautical units.
time (UTC)temp
F
wind
direction
speed
MPH
gust
MPH
rain 1hr
in
rain 24hr
in
rain mn
in
humidity
%
barometer
mb
20220707033114 62 87 0.0 0.0 0.36 0.00 4.20 18 1010.0
20220707032615 62 87 0.0 0.0 0.08 0.00 3.92 18 1011.0
20220707032114 62 87 0.0 0.0 0.00 0.00 3.84 16 1011.0
20220707031615 62 87 0.0 0.0 0.00 0.00 3.84 16 1011.0
20220707031145 62 86 0.0 0.0 0.00 0.00 3.84 16 1011.0
20220707031114 62 86 0.0 0.0 0.00 0.00 3.84 16 1011.0
20220707030614 62 108 0.0 0.0 2.48 0.00 3.84 16 1011.0
20220707030114 62 109 0.0 0.0 2.48 0.00 3.84 16 1011.0
20220707025614 62 109 0.0 0.0 2.48 0.00 3.84 16 1011.0
20220707025114 62 108 0.0 0.0 2.44 0.00 3.80 16 1011.0
20220707024614 62 109 0.0 0.0 2.40 0.00 3.76 16 1011.0
20220707024114 62 109 0.0 0.0 1.80 0.00 3.16 16 1011.0
20220707023614 62 109 0.0 0.0 1.64 0.00 3.00 16 1011.0
20220707023114 62 77 0.0 0.0 1.64 0.00 3.00 16 1011.0
20220707022614 62 77 0.0 0.0 1.04 0.00 2.40 16 1011.0
20220707022114 62 77 0.0 0.0 0.92 0.00 2.28 16 1011.0
20220707021114 62 77 0.0 0.0 0.88 0.00 2.24 16 1011.0
20220707020614 62 95 0.0 0.0 0.88 0.00 1.36 16 1011.0
20220707020114 62 95 0.0 0.0 0.60 0.00 1.08 16 1011.0
20220707015614 63 95 0.0 0.0 0.60 0.00 1.08 16 1011.0
20220707015114 63 96 0.0 0.0 0.60 0.00 1.08 16 1011.0
20220707014614 63 96 0.0 0.0 0.48 0.00 0.96 16 1011.0
20220707014114 63 96 0.0 0.0 0.48 0.00 0.96 16 1011.0
20220707013614 63 96 0.0 0.0 0.36 0.00 0.84 16 1011.0
20220707013114 63 96 0.0 0.0 0.00 0.00 0.48 16 1011.0
20220707012614 63 96 0.0 0.0 0.00 0.00 0.48 16 1011.0
20220707012114 63 96 0.0 0.0 0.00 0.00 0.48 16 1011.0
20220707011614 63 96 0.0 0.0 0.00 0.00 0.48 16 1011.0
20220707011114 63 96 0.0 0.0 0.00 0.00 0.48 15 1011.0
20220707010614 63 96 0.0 0.0 0.00 0.00 0.48 15 1011.0
20220707010114 63 96 0.0 0.0 0.00 0.00 0.48 15 1011.0
20220707005614 63 96 0.0 0.0 0.00 0.00 0.48 15 1011.0
20220707005114 63 96 0.0 0.0 0.00 0.00 0.48 15 1011.0
20220707004614 63 96 0.0 0.0 0.00 0.00 0.48 15 1011.0
20220707004114 64 96 0.0 0.0 0.00 0.00 0.48 15 1011.0
20220707003614 64 96 0.0 0.0 0.00 0.00 0.48 15 1011.0
20220707003114 64 96 0.0 0.0 0.00 0.00 0.48 15 1011.0
20220707002614 64 96 0.0 0.0 0.00 0.00 0.48 15 1011.0
20220707002114 64 96 0.0 0.0 0.00 0.00 0.48 15 1011.0
20220707001614 64 96 0.0 0.0 0.00 0.00 0.48 15 1011.0
20220707001114 64 96 0.0 0.0 0.00 0.00 0.48 15 1011.0
20220707000614 64 96 0.0 0.0 0.04 0.00 0.48 15 1011.0
20220707000114 64 96 0.0 0.0 0.04 0.00 0.48 15 1011.0
20220706235614 64 96 0.0 0.0 0.04 0.00 0.48 15 1011.0
20220706235114 64 96 0.0 0.0 0.04 0.00 0.48 15 1011.0
20220706234614 64 50 0.0 0.0 0.04 0.00 0.48 15 1011.0
20220706234114 64 49 0.0 0.0 0.04 0.00 0.48 15 1011.0
20220706233614 64 50 0.0 0.0 0.00 0.00 0.44 15 1011.0
20220706233114 64 49 0.0 0.0 0.00 0.00 0.44 15 1011.0
20220706232614 64 50 0.0 0.0 0.00 0.00 0.44 15 1012.0
20220706232305 64 112 0.0 0.0 0.00 0.00 0.44 15 1012.0
20220706232114 64 112 0.0 0.0 0.00 0.00 0.44 15 1012.0
20220706231614 64 112 0.0 0.0 0.00 0.00 0.44 15 1012.0
20220706231114 64 116 0.0 0.0 0.00 0.00 0.44 15 1012.0
20220706230614 64 117 0.0 0.0 0.00 0.00 0.44 15 1012.0
20220706230114 64 117 0.0 0.0 0.00 0.00 0.44 15 1012.0
20220706225614 64 117 0.0 0.0 0.00 0.00 0.44 15 1012.0
20220706225114 64 117 0.0 0.0 0.00 0.00 0.44 15 1012.0
20220706224614 64 58 0.0 0.0 0.00 0.00 0.44 15 1012.0
20220706224114 64 108 0.0 0.0 0.00 0.00 0.44 15 1012.0
20220706223614 64 64 0.0 0.0 0.00 0.00 0.44 15 1012.0
20220706223114 64 64 0.0 0.0 0.00 0.00 0.44 15 1012.0
20220706222614 65 99 0.0 0.0 0.00 0.00 0.44 15 1012.0
20220706222114 65 99 0.0 0.0 0.00 0.00 0.44 15 1012.0
20220706221614 65 117 0.0 0.0 0.00 0.00 0.44 15 1012.0
20220706221114 65 91 0.0 0.0 0.00 0.00 0.44 15 1012.0
20220706220614 65 95 0.0 0.0 0.16 0.00 0.44 15 1012.0
20220706220114 65 52 0.0 0.0 0.16 0.00 0.44 15 1012.0
20220706215614 65 47 0.0 0.0 0.16 0.00 0.44 15 1012.0
20220706215114 65 86 0.0 0.0 0.16 0.00 0.44 15 1012.0
20220706214614 65 87 0.0 0.0 0.16 0.00 0.44 15 1012.0
20220706214114 65 87 0.0 0.0 0.16 0.00 0.44 17 1012.0
20220706213614 66 66 0.0 0.0 0.16 0.00 0.44 17 1012.0
20220706213114 66 67 0.0 0.0 0.16 0.00 0.44 17 1012.0
20220706212614 65 67 0.0 0.0 0.12 0.00 0.40 17 1012.0
20220706212114 65 66 0.0 0.0 0.12 0.00 0.40 17 1012.0
20220706211614 66 67 0.0 0.0 0.00 0.00 0.28 17 1012.0
20220706211114 66 77 0.0 0.0 0.00 0.00 0.28 17 1012.0
20220706210614 66 77 0.0 0.0 0.24 0.00 0.24 17 1012.0
20220706210114 66 77 0.0 0.0 0.24 0.00 0.24 17 1012.0
20220706205614 66 80 0.0 0.0 0.24 0.00 0.24 17 1011.0
20220706205114 66 80 0.0 0.0 0.24 0.00 0.24 17 1011.0
20220706204614 66 111 0.0 0.0 0.24 0.00 0.24 17 1011.0
20220706204114 66 111 0.0 0.0 0.24 0.00 0.24 17 1011.0
20220706203614 66 111 0.0 0.0 0.20 0.00 0.20 17 1011.0
20220706203114 66 116 0.0 0.0 0.20 0.00 0.20 17 1011.0
20220706202614 66 27 0.0 0.0 0.16 0.00 0.16 17 1012.0
20220706202114 66 30 0.0 0.0 0.16 0.00 0.16 17 1012.0
20220706201614 66 67 0.0 0.0 0.08 0.00 0.08 17 1012.0
20220706201114 66 67 0.0 0.0 0.08 0.00 0.08 17 1011.0
20220706200614 66 67 0.0 0.0 0.16 0.00 0.64 17 1011.0
20220706200114 66 67 0.0 0.0 0.12 0.00 0.60 17 1011.0
20220706195614 66 67 0.0 0.0 0.12 0.00 0.60 17 1011.0
20220706195114 66 69 0.0 0.0 0.00 0.00 0.48 17 1011.0
20220706194614 66 71 0.0 0.0 0.00 0.00 0.48 17 1011.0
20220706194114 66 71 0.0 0.0 0.00 0.00 0.48 17 1011.0
20220706193614 66 71 0.0 0.0 0.00 0.00 0.48 17 1011.0
20220706193114 66 70 0.0 0.0 0.00 0.00 0.48 17 1011.0
20220706192614 66 71 0.0 0.0 0.00 0.00 0.48 17 1011.0
20220706192114 66 72 0.0 0.0 0.00 0.00 0.48 17 1011.0
20220706191614 66 72 0.0 0.0 0.00 0.00 0.48 17 1011.0
20220706191114 67 72 0.0 0.0 0.00 0.00 0.48 17 1011.0
20220706190614 67 72 0.0 0.0 0.00 0.00 0.48 17 1011.0
20220706190114 67 72 0.0 0.0 0.00 0.00 0.48 17 1011.0
20220706185614 67 72 0.0 0.0 0.00 0.00 0.48 17 1011.0
20220706185114 68 72 0.0 0.0 0.00 0.00 0.48 17 1011.0
20220706184614 68 72 0.0 0.0 0.00 0.00 0.48 17 1011.0
20220706183614 68 72 0.0 0.0 0.00 0.00 0.48 17 1011.0
20220706183114 69 72 0.0 0.0 0.00 0.00 0.48 17 1011.0
20220706182614 69 72 0.0 0.0 0.00 0.00 0.48 17 1011.0
20220706182114 70 72 0.0 0.0 0.00 0.00 0.48 17 1011.0
20220706181614 71 72 0.0 0.0 0.00 0.00 0.48 16 1011.0
20220706181116 71 72 0.0 0.0 0.00 0.00 0.48 16 1011.0
20220706180614 72 68 0.0 0.0 0.00 0.00 0.48 16 1011.0
20220706180114 73 68 0.0 0.0 0.00 0.00 0.48 16 1011.0
20220706175614 74 68 0.0 0.0 0.00 0.00 0.48 15 1011.0
20220706175114 75 68 0.0 0.0 0.00 0.00 0.48 15 1011.0
20220706174614 76 68 0.0 0.0 0.00 0.00 0.48 15 1011.0
20220706174114 78 68 0.0 0.0 0.00 0.00 0.48 15 1011.0
20220706172614 80 65 0.0 0.0 0.00 0.00 0.48 14 1011.0
20220706172114 80 56 0.0 0.0 0.00 0.00 0.48 14 1011.0
20220706171614 80 64 0.0 0.0 0.00 0.00 0.48 14 1011.0
20220706171114 80 284 0.0 0.0 0.00 0.00 0.48 14 1011.0
20220706170614 81 284 0.0 0.0 0.00 0.00 0.48 14 1011.0
20220706170114 80 329 0.0 0.0 0.00 0.00 0.48 14 1011.0
20220706165614 80 329 0.0 0.0 0.00 0.00 0.48 14 1011.0
20220706165114 80 62 0.0 0.0 0.00 0.00 0.48 14 1011.0
20220706164614 80 273 0.0 0.0 0.00 0.00 0.48 14 1011.0
20220706164115 81 252 0.0 0.0 0.00 0.00 0.48 14 1011.0
20220706163614 80 280 0.0 0.0 0.00 0.00 0.48 14 1011.0
20220706163114 80 271 0.0 0.0 0.00 0.00 0.48 14 1011.0
20220706162614 81 276 0.0 0.0 0.00 0.00 0.48 14 1011.0
20220706162114 81 309 0.0 0.0 0.00 0.00 0.48 14 1011.0
20220706161614 80 315 0.0 0.0 0.00 0.00 0.48 14 1011.0
20220706161114 81 264 0.0 0.0 0.00 0.00 0.48 14 1011.0
20220706160614 81 290 0.0 0.0 0.00 0.00 0.48 14 1011.0
20220706160114 80 258 0.0 0.0 0.00 0.00 0.48 14 1011.0
20220706155614 80 271 0.0 0.0 0.00 0.00 0.48 14 1011.0
20220706155114 80 288 0.0 0.0 0.00 0.00 0.48 14 1011.0
20220706154614 79 266 0.0 0.0 0.00 0.00 0.48 14 1011.0
20220706154114 79 258 0.0 0.0 0.00 0.00 0.48 15 1011.0
20220706153614 79 333 0.0 0.0 0.00 0.00 0.48 15 1011.0
20220706153114 79 282 0.0 0.0 0.00 0.00 0.48 15 1011.0
20220706152614 79 286 0.0 0.0 0.00 0.00 0.48 15 1011.0
20220706152114 79 309 0.0 0.0 0.00 0.00 0.48 15 1011.0
20220706151614 79 292 0.0 0.0 0.00 0.00 0.48 15 1011.0
20220706151114 78 254 0.0 0.0 0.00 0.00 0.48 15 1011.0
20220706150616 79 296 0.0 0.0 0.00 0.00 0.48 15 1011.0
20220706150114 79 258 0.0 0.0 0.00 0.00 0.48 15 1011.0
20220706145614 79 290 0.0 0.0 0.00 0.00 0.48 15 1011.0
20220706145115 79 249 0.0 0.0 0.00 0.00 0.48 15 1011.0
20220706144614 79 294 0.0 0.0 0.00 0.00 0.48 14 1011.0
20220706144114 80 266 0.0 0.0 0.00 0.00 0.48 14 1011.0
20220706143614 79 243 0.0 0.0 0.00 0.00 0.48 14 1011.0
20220706143114 80 285 0.0 0.0 0.00 0.00 0.48 14 1011.0
20220706142614 80 245 0.0 0.0 0.00 0.00 0.48 14 1011.0
20220706142114 80 305 0.0 0.0 0.00 0.00 0.48 14 1011.0
20220706141614 79 42 0.0 0.0 0.00 0.00 0.48 15 1011.0
20220706141114 79 303 0.0 0.0 0.00 0.00 0.48 15 1011.0
20220706140614 79 270 0.0 0.0 0.00 0.00 0.48 15 1011.0
20220706140114 79 264 0.0 0.0 0.00 0.00 0.48 15 1011.0
20220706135614 78 315 0.0 0.0 0.00 0.00 0.48 15 1011.0
20220706135114 79 278 0.0 0.0 0.00 0.00 0.48 15 1011.0
20220706134614 79 251 0.0 0.0 0.00 0.00 0.48 15 1011.0
20220706134114 79 291 0.0 0.0 0.00 0.00 0.48 14 1011.0
20220706133614 79 82 0.0 0.0 0.00 0.00 0.48 14 1011.0
20220706133114 79 56 0.0 0.0 0.00 0.00 0.48 14 1011.0
20220706132615 79 290 0.0 0.0 0.00 0.00 0.48 15 1012.0
20220706132114 79 292 0.0 0.0 0.00 0.00 0.48 15 1012.0
20220706131614 78 301 0.0 0.0 0.00 0.00 0.48 15 1012.0
20220706131114 79 295 0.0 0.0 0.00 0.00 0.48 15 1011.0
20220706130614 80 314 0.0 0.0 0.00 0.00 0.48 14 1011.0
20220706130114 80 255 0.0 0.0 0.00 0.00 0.48 14 1011.0
20220706125614 80 300 0.0 0.0 0.00 0.00 0.48 14 1012.0
20220706125114 81 275 0.0 0.0 0.00 0.00 0.48 14 1012.0
20220706124614 82 306 0.0 0.0 0.00 0.00 0.48 14 1012.0
20220706124114 81 44 0.0 0.0 0.00 0.00 0.48 14 1012.0
20220706123614 81 267 0.0 0.0 0.00 0.00 0.48 14 1012.0
20220706123114 80 70 0.0 0.0 0.00 0.00 0.48 14 1012.0
20220706122613 80 46 0.0 0.0 0.00 0.00 0.48 14 1012.0
20220706122114 80 34 0.0 0.0 0.00 0.00 0.48 14 1012.0
20220706121614 80 50 0.0 0.0 0.00 0.00 0.48 14 1012.0
20220706121114 79 26 0.0 0.0 0.00 0.00 0.48 14 1012.0
20220706120614 79 294 0.0 0.0 0.00 0.00 0.48 14 1012.0
20220706120114 80 305 0.0 0.0 0.00 0.00 0.48 14 1012.0
20220706115614 80 50 0.0 0.0 0.00 0.00 0.48 14 1012.0
20220706115114 80 289 0.0 0.0 0.00 0.00 0.48 14 1012.0
20220706114614 80 265 0.0 0.0 0.00 0.00 0.48 14 1012.0
20220706114114 80 245 0.0 0.0 0.00 0.00 0.48 14 1012.0
20220706113114 79 279 0.0 0.0 0.00 0.00 0.48 15 1012.0
20220706112614 79 327 0.0 0.0 0.00 0.00 0.48 14 1012.0
20220706112114 79 266 0.0 0.0 0.00 0.00 0.48 14 1012.0
20220706111614 79 272 0.0 0.0 0.00 0.00 0.48 14 1012.0
20220706111115 79 270 0.0 0.0 0.00 0.00 0.48 14 1012.0
20220706110114 78 339 0.0 0.0 0.00 0.00 0.48 15 1012.0
20220706105614 79 308 0.0 0.0 0.00 0.00 0.48 15 1012.0
20220706105114 78 259 0.0 0.0 0.00 0.00 0.48 15 1012.0
20220706104614 78 276 0.0 0.0 0.00 0.00 0.48 15 1012.0
20220706104114 78 332 0.0 0.0 0.00 0.00 0.48 15 1012.0
20220706103614 78 258 0.0 0.0 0.00 0.00 0.48 15 1012.0
20220706103114 78 96 0.0 0.0 0.00 0.00 0.48 15 1012.0
20220706102614 78 286 0.0 0.0 0.00 0.00 0.48 17 1012.0
20220706102114 78 56 0.0 0.0 0.00 0.00 0.48 17 1012.0
20220706101616 78 309 0.0 0.0 0.00 0.00 0.48 15 1012.0
20220706101114 78 356 0.0 0.0 0.00 0.00 0.48 15 1012.0
20220706100614 78 79 0.0 0.0 0.00 0.00 0.48 15 1012.0
20220706100114 78 52 0.0 0.0 0.00 0.00 0.48 15 1012.0
20220706095614 78 301 0.0 0.0 0.00 0.00 0.48 15 1012.0
20220706094615 77 58 0.0 0.0 0.00 0.00 0.48 15 1012.0
20220706094114 77 205 0.0 0.0 0.00 0.00 0.48 15 1012.0
20220706093617 77 332 0.0 0.0 0.00 0.00 0.48 15 1012.0
20220706093114 76 287 0.0 0.0 0.00 0.00 0.48 15 1012.0
20220706092114 76 351 0.0 0.0 0.00 0.00 0.48 15 1012.0
20220706091614 77 44 0.0 0.0 0.00 0.00 0.48 15 1012.0
20220706091114 76 15 0.0 0.0 0.00 0.00 0.48 15 1011.0
20220706090114 76 291 0.0 0.0 0.00 0.00 0.48 15 1011.0
20220706085616 76 290 0.0 0.0 0.00 0.00 0.48 18 1011.0
20220706085114 76 280 0.0 0.0 0.00 0.00 0.48 15 1011.0
20220706084614 75 293 0.0 0.0 0.00 0.00 0.48 18 1011.0
20220706084114 75 45 0.0 0.0 0.00 0.00 0.48 18 1011.0
20220706083614 75 42 0.0 0.0 0.00 0.00 0.48 18 1011.0
20220706083121 75 42 0.0 0.0 0.00 0.00 0.48 15 1011.0
20220706082614 75 316 0.0 0.0 0.00 0.00 0.48 15 1011.0
20220706082113 75 274 0.0 0.0 0.00 0.00 0.48 15 1011.0
20220706081614 75 20 0.0 0.0 0.00 0.00 0.48 15 1011.0
20220706081114 75 305 0.0 0.0 0.00 0.00 0.48 15 1011.0
20220706080614 74 73 0.0 0.0 0.00 0.00 0.48 15 1011.0
20220706080114 74 289 0.0 0.0 0.00 0.00 0.48 15 1011.0
20220706075613 74 35 0.0 0.0 0.00 0.00 0.48 15 1011.0
20220706075114 74 12 0.0 0.0 0.00 0.00 0.48 16 1011.0
20220706074613 73 295 0.0 0.0 0.00 0.00 0.48 16 1011.0
20220706074114 73 264 0.0 0.0 0.00 0.00 0.48 16 1011.0
20220706073614 73 10 0.0 0.0 0.00 0.00 0.48 16 1011.0
20220706073114 73 25 0.0 0.0 0.00 0.00 0.48 16 1011.0
20220706072613 72 44 0.0 0.0 0.00 0.00 0.48 16 1011.0
20220706072116 72 55 0.0 0.0 0.00 0.00 0.48 16 1011.0
20220706071613 72 32 0.0 0.0 0.00 0.00 0.48 16 1011.0
20220706071114 71 284 0.0 0.0 0.00 0.00 0.48 19 1011.0
20220706070613 71 64 0.0 0.0 0.00 0.00 0.48 19 1011.0
20220706070113 71 115 0.0 0.0 0.00 0.00 0.48 19 1011.0
20220706065614 70 49 0.0 0.0 0.00 0.00 0.48 19 1011.0
20220706065113 70 28 0.0 0.0 0.00 0.00 0.48 19 1011.0
20220706064614 70 68 0.0 0.0 0.00 0.00 0.48 19 1011.0
20220706064114 69 68 0.0 0.0 0.00 0.00 0.48 19 1011.0
20220706063613 69 57 0.0 0.0 0.00 0.00 0.48 19 1011.0
20220706063113 69 26 0.0 0.0 0.00 0.00 0.48 19 1011.0
20220706062613 69 53 0.0 0.0 0.00 0.00 0.48 19 1011.0
20220706062113 69 339 0.0 0.0 0.00 0.00 0.48 19 1011.0
20220706061613 68 18 0.0 0.0 0.00 0.00 0.48 20 1011.0
20220706061113 68 61 0.0 0.0 0.00 0.00 0.48 20 1011.0
20220706060613 68 50 0.0 0.0 0.00 0.00 0.48 20 1011.0
20220706060113 67 53 0.0 0.0 0.00 0.00 0.48 22 1011.0
20220706055613 67 38 0.0 0.0 0.00 0.00 0.48 22 1011.0
20220706055113 67 57 0.0 0.0 0.00 0.00 0.48 22 1011.0
20220706054613 67 32 0.0 0.0 0.00 0.00 0.48 22 1011.0
20220706054113 66 72 0.0 0.0 0.00 0.00 0.48 22 1011.0
20220706053613 66 69 0.0 0.0 0.00 0.00 0.48 22 1011.0
20220706053113 66 120 0.0 0.0 0.00 0.00 0.48 22 1011.0
20220706052613 66 51 0.0 0.0 0.00 0.00 0.48 22 1010.0
20220706052113 65 60 0.0 0.0 0.00 0.00 0.48 22 1010.0
20220706051613 65 44 0.0 0.0 0.00 0.00 0.48 22 1010.0
20220706051113 65 56 0.0 0.0 0.00 0.00 0.48 22 1010.0
20220706050613 65 54 0.0 0.0 0.00 0.00 0.48 20 1010.0
20220706050113 65 56 0.0 0.0 0.00 0.00 0.48 20 1010.0
20220706045613 65 43 0.0 0.0 0.00 0.00 0.48 20 1010.0
20220706045113 64 45 0.0 0.0 0.00 0.00 0.48 20 1010.0
20220706044613 64 17 0.0 0.0 0.00 0.00 0.48 20 1010.0
20220706044113 64 62 0.0 0.0 0.00 0.00 0.48 20 1010.0
20220706043613 64 54 0.0 0.0 0.00 0.00 0.48 20 1010.0
20220706043113 64 78 0.0 0.0 0.00 0.00 0.48 20 1010.0
20220706042613 64 57 0.0 0.0 0.00 0.00 0.48 20 1010.0
20220706042113 64 60 0.0 0.0 0.00 0.00 0.48 20 1010.0
20220706041613 64 121 0.0 0.0 0.00 0.00 0.48 20 1010.0
20220706041113 64 53 0.0 0.0 0.00 0.00 0.48 20 1010.0
20220706040613 64 53 0.0 0.0 0.00 0.00 0.48 20 1010.0
20220706040113 64 42 0.0 0.0 0.00 0.00 0.48 20 1010.0
20220706035613 63 52 0.0 0.0 0.00 0.00 0.48 18 1010.0
20220706035113 63 78 0.0 0.0 0.00 0.00 0.48 18 1010.0
20220706034613 64 63 0.0 0.0 0.00 0.00 0.48 18 1010.0
20220706034113 64 24 0.0 0.0 0.00 0.00 0.48 18 1010.0
20220706033613 64 47 0.0 0.0 0.00 0.00 0.48 18 1010.0